• Join FlightAware (Why Join?)
  • Login
  • US Flag 
07:21PM EST


 

Airport Tracker/Info


-or-


 

Live Flight TrackerFlight Track Log ✈ AAY841 ✈ 03-Apr-2014 ✈ KTRI - KPIE

Flight Track Log - Related Links

Times and Time Zones

All times are in EDT time to prevent confusion due to time zone crossing. See the AAY841 flight status page for this flight to view local times or setup timezone preferences in your user account.

Time Position Orientation Groundspeed Altitude Reporting Facility
EDT Latitude Longitude Course Direction KTS MPH feet Rate Location/Type
10:23AM 36.4589 -82.4514 286° West 180 207 3,100  Level Atlanta Center
10:24AM 36.4744 -82.5181 286° West 194 223 5,300 2,460 Climbing Atlanta Center
10:25AM 36.4333 -82.5833 232° Southwest 220 253 8,100 2,460 Climbing Atlanta Center
10:26AM 36.3672 -82.6258 207° Southwest 250 288 10,300 2,160 Climbing Atlanta Center
10:27AM 36.2772 -82.6042 169° South 291 335 12,500 2,340 Climbing Atlanta Center
10:28AM 36.1853 -82.5878 172° South 326 375 15,000 2,160 Climbing Atlanta Center
10:29AM 36.0808 -82.5692 172° South 363 418 16,900 2,100 Climbing Atlanta Center
10:30AM 35.9742 -82.5506 172° South 377 434 19,300 2,100 Climbing Atlanta Center
10:31AM 35.8633 -82.5294 171° South 390 449 21,200 1,560 Climbing Atlanta Center
10:36AM 35.1905 -82.4129 172° South 453 521 29,200 1,500 Climbing FlightAware ADS-B (KDZJ)
10:37AM 35.1225 -82.4012 172° South 453 521 30,000 1,380 Climbing FlightAware ADS-B (KDZJ)
10:38AM 34.9849 -82.3776 172° South 456 525 31,500 1,200 Climbing FlightAware ADS-B (KDZJ)
10:38AM 34.9197 -82.3664 172° South 453 521 32,000 360 Climbing FlightAware ADS-B (KDZJ)
10:39AM 34.8352 -82.3520 172° South 452 520 32,000  Level FlightAware ADS-B (KDZJ)
10:40AM 34.7406 -82.3359 172° South 452 520 32,000  Level FlightAware ADS-B (KDZJ)
10:41AM 34.6509 -82.3207 172° South 453 521 32,000 780 Level FlightAware ADS-B (KDZJ)
10:42AM 34.5243 -82.2990 172° South 442 509 33,400 600 Climbing FlightAware ADS-B (KDZJ)
10:42AM 34.5417 -82.3039 172° South 453 521 33,000 840 Descending Atlanta Center
10:43AM 34.4014 -82.2789 172° South 453 521 34,700 1,380 Climbing Atlanta Center
10:44AM 34.2803 -82.2589 172° South 453 521 35,800 600 Climbing Atlanta Center
10:45AM 34.1589 -82.2364 171° South 448 516 36,000 60 Climbing Atlanta Center
10:46AM 34.0333 -82.2164 172° South 448 516 36,000  Level Atlanta Center
10:47AM 33.9267 -82.1986 172° South 448 516 36,000  Level Atlanta Center
10:48AM 33.8031 -82.1764 172° South 448 516 36,000  Level Atlanta Center
10:49AM 33.6797 -82.1664 176° South 448 516 36,000  Level Atlanta Center
10:50AM 33.5569 -82.1842 187° South 443 510 36,000  Level Atlanta Center
10:51AM 33.4383 -82.2042 188° South 436 502 36,000  Level Atlanta Center
10:52AM 33.3217 -82.2239 188° South 436 502 36,000  Level Atlanta Center
10:53AM 33.2008 -82.2439 188° South 441 507 36,000  Level Atlanta Center
10:54AM 33.0800 -82.2661 189° South 446 513 36,000  Level Atlanta Center
10:56AM 32.8228 -82.3067 188° South 451 519 36,000  Level Jacksonville Center
10:57AM 32.7017 -82.3247 187° South 446 513 36,000  Level Jacksonville Center
10:58AM 32.5808 -82.3428 187° South 446 513 36,000  Level Jacksonville Center
10:59AM 32.4556 -82.3656 189° South 446 513 36,000  Level Jacksonville Center
11:00AM 32.3408 -82.3811 187° South 441 507 36,000  Level Jacksonville Center
11:01AM 32.2178 -82.4014 188° South 441 507 36,000  Level Jacksonville Center
11:02AM 32.0947 -82.4217 188° South 446 513 36,000  Level Jacksonville Center
11:03AM 31.9736 -82.4394 187° South 446 513 36,000  Level Jacksonville Center
11:04AM 31.8525 -82.4597 188° South 446 513 36,000  Level Jacksonville Center
11:05AM 31.7294 -82.4822 189° South 446 513 36,000  Level Jacksonville Center
11:06AM 31.6211 -82.5292 200° South 441 507 36,000  Level Jacksonville Center
11:07AM 31.5231 -82.6025 213° Southwest 426 490 36,000  Level Jacksonville Center
11:08AM 31.4419 -82.6978 225° Southwest 419 482 36,000  Level Jacksonville Center
11:09AM 31.3814 -82.8075 237° Southwest 405 466 36,000  Level Jacksonville Center
11:10AM 31.3250 -82.9194 239° Southwest 405 466 36,000  Level Jacksonville Center
11:11AM 31.2792 -83.0189 242° Southwest 361 415 36,000  Level Jacksonville Center
11:17AM 30.7466 -83.4309 204° Southwest 417 480 36,000  Level FlightAware ADS-B (KTLH)
11:18AM 30.6261 -83.4920 204° Southwest 415 478 36,000 -480 Level FlightAware ADS-B (KTLH)
11:19AM 30.5148 -83.5483 204° Southwest 422 486 35,000 -540 Descending FlightAware ADS-B (KTLH)
11:20AM 30.4274 -83.5920 203° Southwest 416 479 35,000  Level FlightAware ADS-B (KTLH)
11:20AM 30.3696 -83.6210 204° Southwest 417 480 35,000 -780 Level FlightAware ADS-B (KTLH)
11:21AM 30.2996 -83.6563 204° Southwest 422 486 34,100 -1,380 Descending FlightAware ADS-B (KTLH)
11:22AM 30.2080 -83.6968 191° South 434 499 33,000 -540 Descending FlightAware ADS-B (KTLH)
11:23AM 30.0408 -83.6747 191° South 426 490 33,000  Level Jacksonville Center
11:24AM 29.9178 -83.6497 170° South 434 499 33,000 -60 Level Jacksonville Center
11:25AM 29.7947 -83.6272 171° South 445 512 32,900  Descending Jacksonville Center
11:26AM 29.6736 -83.6025 170° South 445 512 33,000  Climbing Jacksonville Center
11:27AM 29.5486 -83.5778 170° South 445 512 33,000 -540 Level Jacksonville Center
11:28AM 29.4275 -83.5556 171° South 445 512 32,000 -1,980 Descending Jacksonville Center
11:29AM 29.3025 -83.5283 169° South 450 518 29,100 -2,820 Descending Jacksonville Center
11:30AM 29.1753 -83.4847 163° South 457 526 26,400 -2,400 Descending Jacksonville Center
11:31AM 29.0672 -83.4153 151° Southeast 449 517 24,400 -1,920 Descending Jacksonville Center
11:32AM 28.9608 -83.3458 150° Southeast 449 517 22,600 -1,860 Descending Jacksonville Center
11:33AM 28.8547 -83.2814 152° Southeast 443 510 20,700 -1,860 Descending Jacksonville Center
11:34AM 28.7547 -83.2147 150° Southeast 437 503 18,900 -1,800 Descending Jacksonville Center
11:35AM 28.6650 -83.1575 151° Southeast 419 482 17,200 -1,800 Descending Jacksonville Center
11:36AM 28.5333 -83.0833 154° Southeast 394 453 15,100 -1,560 Descending Tampa TRACON
11:38AM 28.4333 -83.0167 150° Southeast 346 398 13,600 -1,140 Descending Tampa TRACON
11:39AM 28.3500 -82.9667 152° Southeast 284 327 12,600 -1,440 Descending Tampa TRACON
11:40AM 28.3167 -82.8833 114° Southeast 275 316 10,700 -1,680 Descending Tampa TRACON
11:41AM 28.3167 -82.8000 90° East 237 273 9,300 -1,380 Descending Tampa TRACON
11:42AM 28.3000 -82.7500 111° Southeast 210 242 8,000 -1,440 Descending Tampa TRACON
11:43AM 28.2333 -82.7167 156° South 179 206 6,300 -1,200 Descending Tampa TRACON
11:44AM 28.2000 -82.7000 156° South 171 197 5,500 -1,140 Descending Tampa TRACON
11:45AM 28.1500 -82.6833 164° South 181 208 4,100 -1,680 Descending Tampa TRACON
11:46AM 28.1000 -82.6833 180° South 184 212 2,200 -1,380 Descending Tampa TRACON
11:47AM 28.0500 -82.6667 164° South 167 192 1,500 -540 Descending Tampa TRACON
11:48AM 28.0167 -82.6667 180° South 151 174 1,200 -420 Descending Tampa TRACON
11:49AM 27.9833 -82.6833 204° Southwest 138 159 800 -420 Descending Tampa TRACON
11:50AM 27.9500 -82.7000 204° Southwest 126 145 500 -300 Descending Tampa TRACON